Wind_Speed
18 18 17 18 18 19 19 19 20 19 18 18 18 17 17 17 16 16 15 15 15 15 15 15 14 13 12 12 12 12 12 12 12 12 12 12 11 11 10 9 10 10 10 10 9 8 8 8 8 7 7 7 7 6 6 6 6 6 6 6 7 6 5 6 7 8 8 7 7 7 6 6 6 5 6 7 6 7 8 7 6 5 3 4 6
21 19 17 17 18 19 19 19 20 20 19 19 19 18 17 17 17 16 16 16 16 16 15 15 15 15 14 13 13 13 13 12 12 12 12 13 12 12 11 11 11 11 10 10 10 10 9 9 9 9 8 8 8 8 8 7 7 7 6 6 7 7 6 7 8 9 9 8 7 7 6 6 6 6 6 7 7 6 7 7 5 4 4 4 4
21 20 18 18 19 19 19 19 19 21 21 20 20 19 18 18 17 18 18 17 16 16 16 16 16 16 15 15 14 14 14 13 13 13 13 13 13 13 12 11 11 11 11 11 11 10 10 10 10 9 9 9 9 9 8 8 8 7 7 7 7 8 7 8 9 9 10 9 8 8 7 6 7 7 7 7 7 6 6 6 6 4 4 5 4
18 20 20 20 20 20 20 20 19 20 21 21 20 20 19 18 18 19 19 18 17 17 17 17 16 16 16 16 15 15 15 15 14 14 14 14 14 14 13 12 12 12 12 11 11 11 11 11 10 10 9 9 9 9 9 9 8 8 9 9 9 9 9 9 9 10 10 10 9 9 8 8 9 8 7 7 7 6 6 6 6 5 5 6 4
17 17 18 18 19 20 20 20 20 20 21 21 21 21 20 19 18 19 19 18 18 17 17 17 17 17 18 17 17 17 16 16 15 15 15 15 14 14 14 13 13 12 12 12 11 11 11 11 11 10 10 10 10 10 10 9 10 10 10 9 9 9 9 9 10 10 10 11 11 10 9 10 9 8 7 7 7 7 7 6 6 5 5 6 5
16 16 16 17 17 19 20 20 20 21 21 21 21 21 20 20 19 19 19 19 19 18 18 17 18 19 19 19 18 18 17 17 17 16 16 16 15 15 14 14 14 13 13 12 12 12 12 12 12 11 12 12 11 11 10 10 10 10 11 10 10 10 10 10 10 10 11 12 12 11 10 10 9 8 7 7 7 7 7 7 7 5 5 6 5
15 15 16 16 16 17 18 19 19 20 20 20 20 20 20 20 20 19 19 19 20 20 19 19 19 19 20 19 19 18 18 18 18 18 17 17 16 16 16 15 15 14 14 14 13 13 13 12 12 12 13 13 13 12 11 11 11 12 11 11 11 11 11 11 11 11 11 11 11 11 10 9 8 9 8 7 8 8 7 7 7 6 6 6 6
15 15 16 16 16 16 17 17 18 19 19 19 20 20 20 20 20 20 19 19 20 20 20 20 20 20 20 20 20 19 19 19 19 19 19 18 18 17 17 17 16 16 15 15 14 14 14 14 14 13 13 13 13 13 12 11 11 12 12 11 11 12 12 12 12 12 12 12 11 11 10 9 9 9 9 8 8 8 7 7 8 8 7 7 6
13 15 16 17 17 16 16 16 17 18 19 19 20 20 20 19 20 20 19 19 20 20 20 20 20 20 20 20 21 20 20 20 20 20 20 19 19 19 18 18 18 17 17 16 16 16 15 16 16 15 15 15 16 17 16 15 14 13 12 11 12 13 13 13 13 12 12 12 12 11 10 10 9 9 8 8 8 8 7 8 9 9 8 8 8
9 14 16 18 17 17 17 17 17 18 19 20 20 20 20 20 19 20 21 20 20 20 20 20 21 21 20 21 21 21 22 22 22 23 23 22 20 19 19 19 18 18 18 18 17 17 17 17 17 17 18 19 21 23 22 20 20 19 17 15 13 13 13 14 14 14 13 13 13 12 12 11 10 9 9 9 9 9 8 8 9 9 9 9 9
7 11 14 16 17 17 17 18 19 19 19 20 20 20 20 20 20 20 21 21 21 20 20 21 22 21 21 21 21 22 23 23 24 27 29 28 25 21 19 18 18 18 19 19 19 19 19 19 18 18 19 21 23 24 24 22 22 22 22 21 20 18 16 15 14 14 14 14 14 13 13 13 11 10 10 10 10 9 9 9 9 9 9 9 9
7 7 9 11 15 17 18 17 19 20 20 20 20 20 20 20 21 21 21 22 22 21 21 22 23 23 22 22 22 23 23 24 26 29 32 33 32 28 23 19 19 19 19 19 20 19 19 19 19 18 18 19 20 20 20 21 22 22 23 23 23 23 23 21 19 16 14 14 14 14 14 13 12 11 11 10 10 9 9 9 9 10 10 10 10
8 7 6 8 13 16 17 17 19 20 21 21 20 20 20 21 22 22 22 22 22 22 23 23 23 23 23 23 24 24 24 25 27 31 33 34 35 33 29 24 22 21 20 20 20 20 19 19 19 19 18 18 19 19 19 20 22 23 23 23 23 24 25 26 25 23 20 17 15 15 14 13 12 12 11 9 9 10 10 11 10 10 11 11 11
10 9 7 7 9 12 15 18 20 20 21 21 21 21 21 22 23 22 22 22 22 23 24 23 23 24 24 25 25 25 25 25 27 30 33 34 34 34 33 30 26 24 23 22 21 21 20 20 19 20 19 19 19 19 19 20 20 20 21 22 24 24 25 26 26 27 26 24 22 20 17 15 14 13 12 10 11 12 12 12 11 11 12 13 14
11 10 9 8 9 9 10 14 18 20 20 21 21 22 22 22 23 22 21 21 21 22 23 23 23 24 24 25 25 25 26 26 28 30 32 34 33 33 33 33 29 26 25 25 24 23 22 22 21 21 21 21 21 21 20 19 18 18 18 19 20 21 22 23 24 25 26 27 27 25 22 19 18 16 15 14 13 13 13 13 13 13 13 14 15
11 12 11 10 10 10 10 11 13 15 18 20 22 23 23 23 23 22 21 21 21 21 22 22 23 24 25 25 24 25 26 27 29 31 33 34 33 31 33 33 30 28 26 26 26 25 25 24 24 24 23 23 24 25 24 21 19 18 18 18 18 19 20 21 22 23 23 23 24 24 22 21 20 20 19 17 15 13 12 13 14 13 13 13 14
11 13 12 11 12 12 12 12 11 12 14 17 20 23 24 24 23 21 21 21 21 21 21 21 21 22 23 24 25 26 26 27 29 32 33 33 33 32 33 32 29 27 27 27 27 26 26 26 26 25 25 25 26 27 27 26 23 20 19 19 19 20 20 20 21 23 24 23 22 22 23 23 23 23 24 23 21 17 14 14 15 15 15 14 13
12 13 14 13 13 13 13 13 13 13 13 15 19 21 22 22 20 19 19 21 21 21 21 21 21 21 23 24 26 26 26 26 29 31 33 33 33 34 33 29 25 25 26 27 27 27 28 30 30 29 27 27 28 27 27 27 25 23 21 21 21 21 21 19 20 21 22 21 21 21 23 25 25 25 25 25 24 22 19 18 17 16 16 15 15
13 14 15 15 14 13 12 13 13 13 13 15 17 17 16 16 16 16 17 18 19 20 20 21 21 21 22 23 25 26 26 25 27 30 32 33 33 35 33 28 24 25 25 24 26 26 27 30 33 35 34 33 31 30 29 28 26 23 21 21 22 23 22 20 19 19 19 18 18 19 21 22 24 25 26 25 25 24 24 23 20 18 17 17 16
14 15 15 15 15 14 13 12 12 13 13 13 14 13 12 15 18 18 19 19 19 21 21 21 21 22 22 22 23 25 26 26 26 29 31 32 33 35 34 29 26 26 24 23 24 25 25 26 29 34 38 38 37 36 34 32 30 25 21 21 23 23 20 19 19 19 18 17 18 18 18 18 19 20 22 23 24 25 26 26 23 20 19 18 17
15 15 16 16 16 15 14 13 13 13 13 12 12 12 14 19 24 26 25 23 23 23 23 21 21 22 22 22 23 24 25 25 26 28 31 32 32 34 34 33 30 26 24 23 24 24 25 25 26 29 34 37 38 37 37 37 35 31 26 25 26 24 20 18 18 18 18 18 18 18 18 17 18 18 19 20 21 23 25 26 25 23 21 20 19
16 16 16 17 17 16 15 15 15 14 13 12 13 14 15 18 22 24 23 22 24 26 26 24 23 23 23 23 23 24 25 26 26 28 30 32 33 34 35 35 33 27 23 24 25 25 26 26 26 27 30 32 33 33 33 34 36 36 35 32 31 29 25 21 18 18 19 19 19 18 18 18 19 19 20 20 20 20 20 22 23 23 23 23 21
16 16 16 16 16 16 16 16 15 15 13 12 13 14 14 14 16 18 18 20 23 26 26 24 22 22 24 24 24 24 24 26 28 29 31 32 33 34 35 36 36 31 26 25 26 26 25 25 25 25 27 29 30 30 29 29 32 35 36 35 34 33 31 27 22 20 20 19 19 19 17 17 18 19 19 20 20 20 19 19 20 21 22 23 23
17 17 17 16 16 16 16 16 16 15 15 14 13 14 13 13 14 16 18 20 22 24 24 22 21 22 24 24 26 27 25 25 27 30 33 34 35 35 35 36 36 34 32 29 27 25 24 22 22 22 24 26 28 29 29 30 31 32 33 32 32 33 33 30 24 22 21 20 20 21 20 19 19 19 19 19 19 19 19 19 19 20 21 22 22
16 17 17 17 17 17 17 17 17 16 15 15 14 14 13 13 14 15 17 18 20 23 25 24 23 24 24 23 25 26 24 23 25 27 31 34 35 36 37 36 37 37 36 34 30 26 24 23 21 20 22 25 26 28 29 30 31 31 32 31 30 32 33 30 24 22 23 22 22 23 22 21 20 20 19 19 19 18 19 19 20 20 20 21 21
16 17 17 17 17 17 17 18 17 16 16 16 16 15 14 14 14 14 15 17 19 21 23 24 25 26 26 25 24 24 24 23 23 23 26 30 33 35 36 36 36 36 37 37 35 30 28 27 26 24 24 25 26 28 30 31 31 32 31 31 31 31 30 26 23 23 23 23 23 23 22 21 20 20 19 20 20 20 20 19 20 20 20 20 20
17 17 17 17 17 17 17 17 16 16 16 16 16 15 14 14 15 14 15 17 19 22 23 24 24 23 23 23 22 22 22 24 25 24 23 24 28 31 33 35 35 36 37 38 37 35 32 31 31 32 32 32 31 31 31 30 29 29 30 31 33 33 29 25 23 23 23 22 22 22 22 21 20 20 20 21 22 21 20 19 19 20 19 19 19
18 17 17 17 17 17 17 17 17 17 16 15 15 15 14 14 14 15 15 16 18 21 22 21 20 21 23 23 22 21 21 24 28 28 24 22 22 23 27 33 35 33 29 26 26 30 31 31 32 32 31 31 31 29 28 26 24 23 24 25 28 30 29 27 25 24 23 23 23 23 23 22 22 21 21 21 22 22 20 20 20 19 19 18 19
18 18 18 18 17 16 16 16 17 17 16 15 16 17 18 17 17 17 16 16 18 21 21 19 17 19 21 22 21 22 23 24 24 23 23 24 23 20 20 22 22 22 21 19 22 27 30 31 31 28 24 25 25 24 23 22 21 22 22 21 22 23 24 25 25 25 24 24 25 25 24 23 23 22 22 22 22 22 21 21 21 20 19 20 20
18 18 18 18 17 16 15 15 16 16 16 16 17 18 20 21 22 22 21 21 22 25 27 27 26 24 25 25 25 26 27 27 23 19 20 24 25 23 21 17 15 17 18 18 19 24 30 31 29 25 23 24 23 23 22 22 23 24 23 22 22 22 22 23 23 23 23 24 25 24 24 24 24 24 23 23 23 23 22 22 22 22 21 21 20
18 18 18 17 17 16 15 16 16 17 17 16 16 18 20 22 23 25 26 25 25 24 26 30 32 31 32 34 35 37 38 38 34 30 29 29 27 25 24 20 18 19 19 17 18 26 32 30 24 21 22 24 24 23 23 25 26 26 24 23 23 23 23 23 23 22 22 23 24 24 24 24 25 25 25 25 24 24 23 22 23 24 23 22 21
20 19 18 18 17 17 17 16 16 17 17 17 17 18 19 21 23 24 23 22 21 21 21 23 25 27 29 31 33 37 40 42 42 41 40 38 35 31 28 24 21 20 21 21 24 29 31 28 23 22 22 23 24 25 26 26 27 26 25 25 24 24 24 24 23 23 22 22 23 23 24 25 25 25 25 25 24 25 25 23 23 24 24 23 22
22 21 21 19 18 18 18 17 17 18 18 17 18 18 18 20 22 23 22 21 21 22 23 23 23 24 26 27 29 32 34 35 37 41 42 42 41 38 34 28 23 20 22 24 25 25 25 24 23 23 23 23 24 26 26 26 27 27 27 26 26 26 25 24 24 25 24 24 24 24 24 25 25 24 25 25 25 26 25 24 24 23 22 22 23
23 23 23 21 20 19 19 19 19 19 18 18 18 19 20 20 21 23 24 24 22 22 22 22 22 23 24 26 26 28 29 28 27 31 35 37 39 40 37 30 23 20 23 27 26 24 24 24 23 23 23 23 23 25 26 26 26 27 28 28 28 27 25 23 24 26 26 25 24 24 25 26 26 26 25 24 25 25 24 24 24 24 23 23 24
25 25 24 23 23 22 21 21 20 20 19 18 19 20 21 21 21 22 23 23 22 21 21 21 20 21 23 24 25 26 26 25 24 25 27 28 31 34 32 27 21 20 24 28 27 24 24 25 25 25 25 24 23 24 25 26 27 27 27 27 27 26 25 25 26 27 27 26 25 25 26 27 26 26 25 23 24 24 24 24 25 25 24 25 24
26 25 24 24 23 22 22 22 21 20 19 18 19 21 22 21 20 21 24 25 24 23 22 21 20 20 21 22 23 23 24 24 24 26 26 25 26 27 27 25 23 22 25 29 31 29 27 27 26 26 26 26 24 23 24 25 26 27 27 26 25 25 25 26 26 27 27 27 26 25 24 24 25 25 25 25 25 26 25 25 25 24 24 26 26
26 24 23 22 22 21 21 21 20 21 21 20 20 23 25 24 22 22 24 26 25 23 23 22 21 21 20 19 18 19 20 21 23 25 26 25 23 23 26 26 26 25 25 27 28 28 28 29 29 28 27 27 26 26 26 26 26 26 26 25 25 26 26 26 26 26 26 26 25 23 23 25 26 26 26 25 24 24 24 25 25 25 25 26 26
26 25 24 23 21 20 21 21 21 21 22 21 22 24 26 25 24 22 22 24 24 23 23 23 21 20 19 17 15 16 18 21 23 23 25 25 23 24 26 26 25 27 28 28 28 27 27 28 28 28 28 28 28 28 27 27 27 28 27 26 25 25 25 25 26 26 26 26 25 22 23 26 27 26 25 24 23 23 23 21 22 24 25 25 25
26 26 27 27 24 23 23 23 22 22 21 21 23 24 25 24 23 21 20 21 23 23 23 22 22 20 18 15 13 13 16 19 20 19 20 21 23 25 25 23 22 25 28 30 29 28 28 27 26 26 27 28 27 27 27 27 27 27 26 26 26 25 25 26 26 26 27 27 26 24 24 25 25 25 25 24 24 25 23 21 23 25 26 26 26
25 24 24 26 25 24 23 24 24 23 22 22 23 24 24 23 23 22 20 21 22 23 23 22 22 21 18 15 13 14 15 17 17 16 17 19 21 23 24 23 22 23 26 27 28 28 28 27 26 26 27 27 27 27 27 26 27 26 25 24 24 25 26 26 26 26 27 27 26 25 24 24 24 24 24 25 25 25 24 24 26 28 28 27 26
24 23 23 23 23 21 21 23 24 23 22 23 24 25 25 24 22 22 22 21 21 23 24 24 24 23 20 17 16 17 20 20 18 17 19 20 20 20 20 21 21 22 23 24 25 25 26 27 26 26 26 26 27 27 26 25 26 26 25 24 24 25 25 25 25 26 27 27 27 25 23 23 25 25 25 26 26 25 26 27 27 27 28 28 26
24 23 23 22 21 21 21 22 22 21 21 23 25 25 24 22 21 21 21 21 21 22 23 24 23 22 22 21 19 19 21 22 21 20 21 21 20 20 20 20 20 21 21 21 21 21 22 23 24 25 25 25 26 26 25 25 26 26 25 24 23 23 23 24 24 25 26 27 27 23 19 22 27 29 28 29 28 27 28 30 30 29 29 29 28
24 23 23 22 21 21 21 20 19 20 21 21 21 20 19 19 19 20 20 20 20 20 21 22 22 21 22 23 22 22 24 25 25 24 23 22 21 20 19 18 16 16 18 19 19 18 18 18 18 19 19 20 22 23 23 23 24 24 25 24 23 24 24 23 23 25 25 24 23 21 21 26 30 30 30 30 29 27 28 30 31 31 30 28 28
26 25 24 22 21 20 17 16 18 20 20 18 17 18 18 18 18 18 19 20 19 19 19 20 20 20 20 20 19 20 23 25 24 23 21 20 17 16 15 15 15 15 16 18 20 21 22 22 21 20 18 16 17 19 20 20 19 20 21 21 21 22 21 20 21 24 24 21 18 20 25 30 30 28 29 30 30 28 29 29 29 28 27 25 24
25 24 22 20 18 17 15 14 16 18 17 16 16 17 17 16 16 17 17 18 18 17 17 17 17 16 17 17 17 17 16 16 18 18 18 17 16 14 14 15 15 14 15 16 18 19 20 21 23 24 24 23 22 22 22 22 22 22 22 21 21 20 20 19 19 21 22 20 19 22 27 29 28 26 26 28 29 29 28 27 25 24 24 25 25
20 19 19 18 17 17 15 15 15 15 14 14 15 15 15 15 15 15 14 14 13 13 13 12 12 11 11 11 12 11 9 9 10 11 12 12 12 11 11 10 11 11 11 12 13 13 14 15 16 18 20 22 23 23 24 24 25 25 25 26 27 28 28 27 25 23 21 19 19 20 24 27 26 24 24 27 29 29 28 25 23 22 22 24 24
15 15 16 17 17 17 16 14 14 14 13 13 14 13 13 13 12 12 11 10 10 10 9 8 8 7 6 5 4 4 3 3 3 4 5 5 5 5 5 5 5 5 6 6 7 7 8 9 9 10 12 15 16 17 19 20 21 21 22 23 25 27 28 29 29 27 24 22 21 20 23 25 23 22 23 25 27 27 26 23 21 20 20 20 20
14 14 15 16 17 16 14 13 13 13 12 13 13 12 11 11 10 9 9 8 6 6 6 5 4 4 3 2 2 2 2 2 2 1 1 1 2 1 1 1 1 1 1 1 1 2 2 3 4 5 7 8 9 10 12 13 14 15 15 16 18 20 21 22 23 21 19 20 21 21 21 21 19 17 17 18 18 19 20 18 17 18 18 17 17
13 14 15 16 16 14 13 12 12 11 11 11 11 10 9 8 7 7 6 5 4 3 3 3 2 2 2 3 4 5 5 5 4 4 4 4 4 5 5 6 6 6 5 6 5 5 5 4 4 3 3 3 3 4 5 5 5 6 7 8 11 13 14 14 14 13 13 16 19 17 14 13 12 9 9 10 10 12 13 11 10 10 10 9 9
12 13 14 14 13 12 11 10 10 9 9 9 9 8 6 5 5 4 3 2 2 1 1 1 2 2 3 4 5 6 6 6 6 6 6 7 7 8 9 10 11 11 12 13 13 13 13 13 13 13 13 12 12 12 11 9 8 7 6 5 3 3 4 6 8 10 13 16 16 13 11 11 11 10 10 10 11 11 12 12 13 14 15 16 15
11 10 11 11 10 10 9 8 8 7 7 7 6 5 4 3 3 2 1 0 0 1 1 2 3 3 4 5 5 6 7 7 7 7 8 8 10 11 13 15 16 18 19 21 21 22 22 23 23 23 23 23 23 23 22 19 17 16 15 14 13 11 9 7 6 7 10 12 13 13 15 17 19 20 21 20 20 21 23 24 24 24 24 24 23
Wind_Direction
214 213 208 209 207 205 206 206 207 209 210 210 211 213 214 215 216 216 217 218 219 220 221 221 222 220 218 216 215 216 217 219 221 220 221 222 225 230 230 229 233 238 241 241 241 240 239 243 246 246 248 250 253 256 255 251 249 250 251 251 256 256 251 262 277 286 294 299 300 302 308 311 308 311 320 323 325 333 340 335 331 340 330 300 309
207 210 208 212 213 209 207 206 207 209 210 211 212 214 215 215 215 214 217 219 219 221 221 221 221 221 221 218 216 216 215 218 221 222 224 225 226 229 229 228 232 236 239 240 241 242 241 243 245 246 247 248 251 254 254 251 248 247 246 247 253 255 247 253 269 281 288 291 293 294 295 296 299 309 315 317 318 321 328 333 331 325 319 312 299
201 201 203 210 216 215 212 208 208 209 212 214 215 216 216 215 214 214 216 218 219 222 223 222 222 221 221 220 218 218 218 219 223 223 224 226 227 230 230 228 231 234 236 238 239 241 242 244 245 246 246 246 249 253 254 253 253 254 253 253 257 259 256 253 258 271 283 288 289 292 294 294 296 301 306 307 305 307 317 324 327 320 309 310 293
202 200 203 210 215 217 215 212 211 212 215 218 217 218 217 214 213 214 216 218 219 221 222 222 223 221 222 222 220 221 222 222 225 226 225 227 229 231 232 231 232 233 235 238 239 241 243 245 248 248 249 250 250 252 253 250 248 250 252 252 252 255 256 253 252 260 274 281 283 287 291 294 293 292 297 301 296 293 300 309 317 319 310 310 283
208 206 209 214 215 216 216 215 215 215 217 220 219 219 218 215 213 213 215 217 218 219 219 220 221 221 222 224 223 223 224 224 225 227 227 227 229 231 233 233 233 234 236 238 239 242 244 247 249 249 249 250 250 252 253 250 249 249 250 249 247 249 251 249 249 254 263 273 279 283 285 286 288 287 286 291 293 291 289 289 296 304 313 316 287
216 212 216 219 217 217 217 217 218 217 218 221 222 221 220 218 216 213 214 216 216 217 217 217 220 222 224 226 226 226 226 225 226 227 228 228 228 230 233 234 236 237 238 239 239 241 244 246 248 248 248 249 250 252 252 249 251 251 251 250 247 247 248 247 249 251 256 265 272 276 279 279 281 283 278 276 284 289 289 287 285 283 300 317 301
228 224 223 224 222 221 220 219 220 220 220 222 223 223 222 221 219 216 214 215 215 216 216 217 218 222 225 227 227 227 226 226 227 227 228 228 228 229 231 234 238 239 241 242 241 242 244 246 247 246 245 247 248 250 250 251 252 252 250 250 247 246 248 248 248 249 253 260 266 270 275 275 275 278 275 271 273 274 274 280 287 283 286 301 298
236 234 231 229 227 226 225 222 221 222 222 223 223 223 224 223 222 220 216 215 216 216 217 217 218 222 226 227 228 227 225 226 227 228 229 229 228 228 230 233 236 239 242 243 244 245 247 248 249 248 246 246 244 245 247 248 250 253 251 249 246 246 248 250 250 250 253 259 264 268 272 273 271 273 272 265 264 266 265 273 286 287 284 287 286
243 241 238 237 235 233 229 224 221 222 222 221 221 222 223 223 222 221 219 218 219 219 220 219 220 222 224 225 227 227 226 227 227 226 227 227 228 230 231 233 236 239 241 244 245 246 248 251 252 251 249 246 245 247 252 252 251 253 252 251 249 247 248 250 249 249 252 256 259 263 266 266 265 265 265 260 263 270 272 274 280 283 286 288 286
258 248 243 242 240 237 234 227 223 222 221 219 219 220 221 222 221 220 219 220 221 220 221 222 223 224 224 224 225 225 228 229 228 228 229 228 227 229 232 233 235 237 239 243 245 246 248 251 253 253 251 250 252 257 262 262 259 256 253 250 249 249 250 252 249 248 250 252 256 259 261 263 264 265 267 267 267 269 270 274 279 284 290 290 288
277 256 250 246 241 237 234 231 228 225 221 218 218 218 219 220 221 221 220 221 222 221 222 223 225 227 227 226 226 226 229 229 229 232 236 237 234 231 232 235 235 236 238 241 243 246 249 251 253 254 252 252 256 262 266 266 262 259 256 252 249 247 248 251 253 252 252 252 256 258 261 265 265 265 270 273 271 270 272 277 281 284 288 289 290
311 282 269 260 252 244 236 233 233 230 225 221 218 218 219 220 221 222 223 223 223 222 224 224 226 228 229 230 230 230 231 231 230 235 240 243 243 239 235 236 238 238 239 240 242 245 248 250 251 252 250 247 250 255 262 266 265 261 258 255 253 249 247 248 251 252 255 258 261 260 260 263 264 262 265 272 275 275 275 275 274 277 280 281 286
340 335 316 288 274 262 247 238 236 236 235 231 224 220 219 220 222 224 226 226 225 225 225 225 226 228 229 232 233 233 234 233 232 236 240 244 246 243 239 237 238 240 241 241 242 243 245 247 249 250 250 248 246 245 247 255 263 265 262 259 256 252 250 249 248 248 251 257 262 262 261 262 262 261 262 266 271 272 273 272 270 271 275 275 278
348 349 344 324 301 281 263 250 243 240 240 237 231 226 222 223 225 227 228 227 225 225 227 226 226 227 228 230 232 234 236 235 233 237 241 244 246 245 242 239 238 240 242 242 243 243 243 244 245 247 247 245 243 241 239 242 249 256 259 260 257 254 253 252 251 250 249 248 250 254 256 257 257 258 259 257 258 262 265 269 270 271 273 274 276
347 347 344 340 333 319 295 271 256 248 243 239 235 233 229 226 227 228 229 229 227 226 228 228 227 227 227 229 232 235 237 236 235 236 240 244 246 245 244 241 239 239 241 242 242 243 242 242 243 244 244 242 240 239 239 238 239 242 245 249 251 251 249 249 249 249 248 245 245 246 249 252 254 257 258 255 254 257 259 264 269 270 272 274 274
344 344 341 339 337 332 321 302 281 264 251 242 238 237 235 233 231 229 230 231 231 230 229 229 229 228 228 229 231 236 238 237 236 237 240 243 245 244 244 242 240 239 240 241 241 241 241 241 241 242 243 242 242 242 241 239 239 242 243 243 245 246 245 244 244 244 243 241 240 240 243 247 248 248 249 248 249 254 262 266 265 262 263 268 268
341 339 337 337 335 329 324 318 306 287 268 254 246 242 241 239 237 233 233 235 235 233 231 231 231 230 231 230 230 234 238 237 236 238 240 242 242 242 242 240 238 237 239 240 240 240 240 240 239 241 242 242 243 244 245 243 240 241 244 245 246 247 247 247 248 249 249 247 245 242 243 246 246 245 245 246 247 249 256 261 259 258 260 261 263
340 336 332 331 328 326 325 321 312 300 286 271 259 252 251 251 248 243 239 237 237 238 236 235 235 233 232 232 231 234 238 238 237 238 241 241 240 240 240 237 235 237 238 239 240 240 241 241 240 240 240 242 244 244 245 244 240 237 241 244 246 248 247 246 249 252 253 253 252 251 250 250 249 247 246 247 247 244 244 245 249 257 260 259 264
334 331 328 325 322 320 318 315 310 304 296 285 277 273 271 270 271 272 267 257 250 248 243 240 240 238 235 234 234 235 239 240 238 239 241 241 240 239 237 234 234 236 237 238 240 240 240 242 243 243 243 243 244 243 243 242 238 234 237 241 244 246 247 245 247 250 247 242 241 244 249 253 254 251 249 249 246 241 238 238 242 250 255 257 264
324 321 320 320 318 315 311 309 306 301 295 293 295 295 281 266 264 269 271 268 263 261 255 247 244 242 240 239 237 236 239 241 239 239 241 242 241 238 234 231 232 234 235 237 239 240 240 240 243 246 248 249 248 245 243 242 240 236 234 238 242 244 246 246 247 249 249 245 243 244 246 250 251 251 251 250 246 241 238 236 236 240 247 255 259
315 314 315 316 316 314 311 308 306 300 292 290 294 292 275 260 252 249 249 249 248 254 259 258 254 250 246 244 242 240 240 240 239 239 240 242 243 239 232 229 231 233 234 236 238 240 241 240 240 244 249 252 253 250 246 245 245 241 236 236 240 243 246 250 250 249 250 251 251 251 248 246 246 246 247 246 242 240 239 237 235 236 242 250 255
310 310 310 310 311 313 310 308 306 302 294 287 285 283 275 264 256 252 251 250 247 246 248 250 252 253 251 248 245 244 243 241 240 239 239 241 243 240 236 234 233 231 232 236 238 239 241 241 241 243 247 251 255 254 251 249 248 246 244 243 245 245 245 249 254 256 255 253 253 252 249 246 246 247 247 247 244 240 238 237 234 234 238 244 249
305 305 304 304 305 307 307 306 304 299 292 285 278 276 274 269 262 258 254 251 251 249 247 246 248 251 253 252 249 246 245 243 240 239 238 240 242 242 241 240 237 232 232 237 240 241 243 244 244 245 247 251 254 256 255 253 251 250 250 249 250 251 249 247 250 253 254 255 253 250 247 244 244 244 244 246 248 245 242 241 238 235 238 242 245
301 299 298 299 300 300 301 302 301 297 292 286 277 272 267 261 259 259 255 251 251 251 249 247 247 248 250 252 251 249 246 244 242 240 239 239 241 243 244 245 241 235 234 239 242 244 246 247 248 250 250 252 255 257 258 257 256 256 256 255 254 253 249 245 245 247 248 250 249 247 245 241 240 241 242 243 246 246 245 246 245 242 242 244 245
295 293 293 294 295 297 297 297 297 295 292 287 281 275 268 257 250 252 254 254 254 251 246 242 241 243 245 248 251 251 248 246 245 243 241 241 242 244 245 247 246 240 237 239 243 245 249 251 253 255 255 256 258 259 259 260 260 260 261 260 257 253 247 243 242 243 243 244 244 243 242 240 237 238 239 239 242 244 242 244 246 244 244 247 247
287 287 287 288 290 292 293 293 293 293 292 288 280 273 269 262 253 248 249 251 252 251 248 242 238 239 241 244 249 252 253 254 252 248 245 243 243 244 246 248 248 245 243 244 246 246 249 253 255 257 258 259 259 259 259 261 263 264 262 260 255 250 244 239 236 237 238 240 242 241 240 239 238 237 235 235 238 241 240 241 243 243 243 245 247
281 280 280 282 284 285 286 288 289 290 290 287 279 271 267 261 255 248 245 249 253 255 252 246 242 243 245 248 252 254 253 254 256 255 250 242 240 241 243 245 245 245 244 246 248 248 251 255 257 258 260 260 259 260 260 260 261 261 260 258 253 248 241 235 233 234 235 236 239 240 240 239 238 236 233 233 237 239 238 236 239 242 243 242 244
277 277 277 277 278 279 281 283 285 286 287 286 281 277 275 269 262 255 247 247 254 261 263 259 255 257 261 263 266 266 259 251 251 252 251 246 239 234 237 241 241 238 234 236 243 249 252 256 258 259 260 259 256 256 255 252 248 248 248 249 250 248 243 238 235 234 235 236 238 240 240 239 239 237 236 237 238 238 236 234 234 237 239 241 242
274 275 275 274 274 274 275 278 281 282 284 286 283 281 277 273 270 267 261 253 252 259 270 278 273 267 265 263 262 262 258 253 251 251 254 257 249 234 232 235 226 220 223 234 248 256 255 253 253 253 253 253 251 248 246 243 241 241 239 236 238 239 236 232 230 231 231 233 235 238 239 239 239 239 239 240 239 238 237 235 233 232 233 238 243
272 273 273 272 270 270 271 275 279 282 283 284 284 284 281 275 271 269 268 265 259 256 260 267 270 274 276 272 265 262 261 261 261 259 263 268 260 246 242 233 209 212 236 249 254 259 257 253 249 246 245 248 247 244 242 241 241 243 241 235 232 233 230 227 228 228 226 226 230 234 236 238 239 239 240 241 240 241 240 237 235 234 231 233 239
270 271 270 268 268 268 269 271 276 279 280 281 282 284 285 282 277 273 271 272 271 266 261 262 265 270 274 273 271 271 269 268 268 267 268 272 271 265 260 248 225 227 245 249 244 247 248 246 245 243 241 242 243 242 243 244 243 243 242 238 234 232 231 229 228 225 222 224 228 230 233 236 238 240 241 242 243 244 244 240 235 234 233 233 236
265 268 269 267 266 266 266 267 271 274 277 279 279 280 283 284 284 281 278 278 279 277 275 273 272 272 273 274 274 274 271 269 270 270 270 272 274 275 275 267 248 239 243 244 242 242 240 238 240 241 240 241 243 243 243 243 243 242 241 240 238 235 233 232 230 225 222 223 226 228 231 234 238 241 242 242 244 247 246 242 236 232 233 233 233
262 266 267 265 263 264 264 265 267 270 273 276 277 276 277 280 284 287 287 286 285 282 279 278 277 277 278 278 278 277 275 273 271 269 269 271 272 272 273 272 264 249 236 231 231 233 235 236 237 239 240 242 244 245 243 242 243 242 241 241 241 239 237 235 231 227 225 225 228 230 233 235 238 242 243 244 246 247 245 243 238 232 230 232 233
259 261 262 261 260 262 263 264 265 266 268 271 274 273 273 275 280 285 287 287 288 288 285 281 278 277 276 276 276 278 279 280 276 271 268 267 267 266 265 264 259 245 230 225 226 230 235 239 239 241 243 243 243 244 243 241 241 241 241 242 243 242 239 235 230 228 228 230 232 234 237 239 241 244 246 245 246 245 241 239 237 231 227 229 233
258 259 261 260 259 259 259 261 262 264 265 268 269 271 273 276 279 282 285 286 287 288 288 285 281 278 275 274 274 276 278 279 280 279 274 269 266 262 257 250 241 228 220 223 228 232 235 238 240 243 244 244 242 241 240 241 240 239 239 240 240 239 237 233 231 231 232 235 237 238 240 242 243 244 245 244 244 243 239 238 237 233 227 227 231
257 257 258 257 255 255 256 257 258 259 262 265 268 271 275 277 276 277 280 282 282 282 283 284 283 281 279 276 276 277 276 274 275 276 276 273 268 258 244 234 230 224 219 222 227 230 233 237 240 242 243 244 242 239 237 238 239 237 236 237 238 238 237 235 232 231 231 234 236 236 238 241 241 240 242 242 240 240 239 238 237 234 230 230 233
252 253 254 254 252 252 254 255 256 258 261 263 265 268 271 272 273 275 278 279 279 280 280 282 283 283 281 280 282 284 280 275 274 274 271 269 265 252 238 232 233 231 228 227 226 227 230 236 238 241 243 244 243 243 241 240 240 239 238 239 241 243 243 241 238 233 230 231 232 230 232 236 236 235 237 238 238 238 237 236 237 236 234 232 232
250 250 252 253 253 254 254 255 256 259 261 261 260 262 265 268 270 272 273 274 276 276 277 278 279 278 278 282 285 282 275 273 273 271 266 264 259 248 237 233 233 233 232 232 229 228 232 236 236 236 240 242 242 243 243 242 243 243 244 244 244 244 244 244 241 236 233 235 235 232 232 235 233 231 232 233 235 238 237 232 232 234 232 227 225
249 249 249 249 251 253 254 256 259 263 263 261 260 261 263 266 267 267 267 269 272 274 274 275 274 273 276 283 284 277 269 267 266 264 260 258 254 246 237 232 232 234 234 235 233 231 234 237 236 234 235 237 239 241 243 245 247 247 247 247 248 248 247 246 245 241 239 238 238 236 235 235 232 229 230 231 233 235 234 229 229 232 232 229 226
249 251 250 246 245 246 249 251 254 257 258 259 260 261 261 262 264 265 266 268 272 273 274 274 274 274 275 277 275 273 273 271 264 257 252 250 247 243 236 231 232 236 237 238 237 235 234 237 239 237 235 235 235 237 240 243 246 247 247 248 250 251 252 251 249 247 246 245 242 239 237 235 232 230 231 232 233 234 232 232 232 231 231 234 233
249 250 249 244 241 243 247 250 251 252 255 259 261 260 258 258 261 264 266 267 270 272 273 272 273 274 275 272 269 269 271 271 267 261 257 252 247 240 234 231 233 237 239 240 240 239 238 239 240 240 239 237 237 238 238 239 243 247 249 250 250 252 254 255 255 254 254 252 250 248 241 233 229 230 230 231 233 234 233 234 234 231 231 236 237
247 247 247 244 242 243 247 249 251 253 256 258 258 256 255 256 259 263 265 266 267 270 272 273 274 275 275 274 273 271 269 267 266 266 265 263 257 248 242 239 238 238 240 243 245 244 243 242 243 244 243 241 241 242 242 241 242 245 248 249 250 252 255 257 257 257 257 256 255 256 246 229 223 224 226 227 228 229 229 230 231 231 231 234 235
244 243 243 244 245 247 248 249 254 257 257 255 253 252 253 255 258 260 263 265 266 268 270 273 276 278 276 274 272 269 266 263 263 263 263 263 261 255 248 243 241 239 238 241 244 247 249 249 248 250 251 248 246 247 249 249 249 249 250 252 254 255 256 254 252 253 256 257 255 250 240 230 226 224 224 224 223 223 224 225 226 228 230 231 230
242 241 241 242 244 246 249 252 256 256 254 252 252 253 253 255 257 259 261 264 266 268 270 274 277 280 281 280 277 270 263 258 256 256 257 258 260 257 250 245 244 241 237 237 241 247 251 252 251 251 254 255 251 247 248 251 252 252 253 256 257 257 256 255 253 253 255 257 251 241 236 235 233 229 227 226 224 223 223 221 221 224 227 226 224
244 245 244 243 242 243 243 245 247 247 247 249 251 252 252 253 255 258 260 263 267 271 274 278 282 284 284 282 278 272 263 252 246 246 248 251 254 256 254 252 251 248 244 243 245 248 252 254 253 251 252 253 252 249 248 250 252 251 250 250 250 251 252 254 255 255 255 254 250 244 240 239 235 229 227 228 228 227 225 222 221 223 223 221 219
241 244 244 242 242 241 237 236 238 240 241 244 248 251 252 253 255 259 262 265 271 276 280 283 285 286 283 277 270 263 256 248 242 240 240 244 249 253 255 255 254 252 250 250 251 251 254 257 258 256 255 255 256 256 258 260 262 261 258 254 251 251 253 254 255 253 250 249 246 239 235 234 233 232 233 235 233 229 226 225 225 224 221 218 216
237 240 241 240 239 236 231 231 235 238 239 242 246 249 252 254 256 260 264 268 273 278 282 284 284 282 281 284 280 266 257 259 256 243 235 236 241 246 250 252 251 248 248 250 253 254 255 258 262 264 264 263 264 264 264 266 269 269 267 263 260 258 259 260 260 258 256 256 253 245 238 236 238 240 241 238 233 229 227 227 227 223 218 215 214
231 236 237 235 232 231 230 231 234 235 237 241 244 245 249 253 256 259 264 269 273 275 277 281 287 290 296 321 5 39 56 54 51 64 91 108 114 126 126 115 113 131 161 212 256 263 270 278 283 283 281 281 281 279 277 275 276 276 277 276 275 273 271 269 267 265 260 252 247 244 240 238 239 239 235 231 227 224 222 221 219 216 213 208 204
228 232 231 229 229 230 231 232 233 233 235 240 241 241 245 250 253 257 264 270 274 277 279 285 300 327 3 31 46 57 62 64 64 65 69 75 77 79 85 91 94 93 89 82 75 73 73 69 64 52 28 4 348 332 317 307 300 297 299 299 295 289 281 270 260 251 237 227 227 227 223 217 213 211 207 205 204 203 200 194 186 180 172 159 157
232 230 230 230 230 230 230 231 231 232 234 237 238 237 237 240 248 260 270 273 279 301 338 6 21 36 51 59 66 71 73 73 73 71 70 74 79 82 86 89 90 90 89 87 85 86 87 86 85 83 79 75 71 67 63 62 65 66 63 56 29 330 288 262 242 225 214 212 210 203 186 171 155 135 128 134 137 130 120 107 99 99 99 91 83
236 230 231 231 227 224 224 223 224 226 231 232 230 225 218 218 231 243 241 217 46 39 40 44 51 58 64 69 78 85 86 85 84 80 77 79 84 88 91 93 94 95 95 92 91 91 91 90 89 88 87 85 82 78 75 75 78 84 90 93 93 94 96 101 118 155 176 177 164 148 138 133 126 117 112 111 108 103 97 91 86 84 84 83 81
Height
829 830 831 833 834 835 837 839 841 843 845 847 848 850 852 853 855 856 857 859 860 861 862 863 865 866 866 867 868 869 870 870 871 871 871 872 872 873 874 874 875 875 876 876 876 876 877 877 877 877 878 878 878 878 877 877 877 877 877 877 877 877 877 877 876 874 874 873 872 871 871 870 870 869 869 868 867 866 865 864 862 861 861 859 857
825 827 829 831 832 833 834 836 838 840 842 844 846 848 850 851 852 854 855 856 857 859 860 861 863 864 864 865 866 867 868 868 869 869 870 870 871 871 872 873 873 874 874 875 875 875 876 876 876 876 876 876 876 876 876 876 875 875 875 875 875 875 875 876 875 874 873 872 872 871 870 870 869 868 868 867 866 865 864 863 862 861 860 860 858
820 823 825 828 829 831 833 834 836 838 840 842 843 845 847 848 850 851 852 854 855 856 858 859 861 861 862 863 864 865 866 866 867 867 868 868 869 870 870 871 872 872 873 873 874 874 874 875 875 875 875 875 875 875 874 874 874 874 874 874 874 874 874 874 874 873 872 871 871 870 869 869 868 868 867 866 866 865 864 863 862 861 860 859 858
819 820 822 824 826 829 830 831 833 835 837 839 840 842 844 845 847 848 850 851 852 854 855 856 858 859 860 861 862 863 864 864 865 866 866 867 867 868 868 869 870 870 871 871 872 872 873 873 873 874 874 874 874 874 873 873 873 873 873 873 873 873 873 873 872 872 871 870 870 869 869 868 867 867 866 866 865 864 863 862 861 860 859 858 857
818 818 820 822 823 826 827 829 831 832 834 836 837 839 841 842 844 845 847 848 850 851 852 854 855 856 857 858 859 860 861 862 863 863 864 865 865 866 866 867 868 868 869 869 870 871 871 871 872 872 872 872 872 872 872 872 872 872 872 871 871 871 871 871 871 871 870 869 868 868 868 867 866 866 866 865 864 863 862 861 860 860 859 858 856
817 817 819 820 821 823 825 826 828 829 831 833 834 836 838 839 841 842 844 845 847 848 849 851 852 853 854 855 857 858 859 860 860 861 862 863 863 864 865 865 866 866 867 867 868 868 869 869 870 870 870 870 870 870 870 871 870 870 870 870 870 870 869 869 869 869 868 868 867 867 866 866 865 865 864 864 863 862 861 860 859 859 858 857 856
816 817 817 818 819 821 822 824 826 827 829 830 832 834 835 836 838 839 841 842 843 845 846 847 848 850 851 852 854 855 856 857 858 858 859 860 861 862 862 863 864 864 865 865 866 866 866 867 867 867 868 868 868 868 868 869 869 868 868 868 868 868 867 867 867 867 866 866 865 865 864 864 864 863 863 863 862 861 861 859 858 857 857 856 855
815 816 816 817 818 819 820 821 823 825 827 828 830 831 832 834 835 836 838 839 840 841 843 844 845 846 848 849 850 852 852 853 854 855 856 857 858 859 860 861 861 862 863 863 863 864 864 864 864 865 865 865 865 866 866 867 867 866 866 866 866 866 865 865 865 864 864 864 863 863 862 862 862 862 861 861 860 860 859 858 858 856 856 855 854
815 815 815 816 816 817 818 819 821 822 824 825 827 829 830 832 833 834 835 836 837 839 840 841 842 843 844 845 846 848 849 850 850 851 853 854 855 856 857 858 859 859 860 860 861 861 861 862 862 862 862 863 863 863 864 864 864 864 864 864 864 864 864 863 863 862 862 862 861 861 861 860 860 860 859 859 858 858 857 857 856 855 854 853 852
814 814 814 814 815 816 817 818 819 820 821 823 824 826 827 829 830 831 832 833 834 836 837 838 839 839 841 841 843 844 845 845 846 847 848 850 852 853 854 855 856 856 857 857 858 858 859 859 859 859 859 860 860 860 860 861 861 862 862 862 862 862 862 861 861 860 860 859 859 859 858 858 857 857 857 857 856 856 856 855 855 854 853 852 851
814 814 813 813 814 814 815 816 817 818 819 820 821 823 824 826 827 828 829 830 831 832 833 835 835 836 837 838 839 839 840 841 842 843 844 846 848 850 851 852 853 853 854 854 854 855 855 856 856 856 856 856 856 856 856 857 858 858 858 859 859 860 859 859 858 858 858 857 857 857 856 855 855 855 855 854 854 854 854 854 854 853 852 851 850
814 813 812 812 812 812 813 813 814 815 816 817 818 820 821 823 824 825 826 827 828 829 830 831 832 833 834 834 835 835 835 836 837 838 839 841 843 845 847 848 849 849 850 850 851 851 852 852 853 853 853 853 853 853 853 853 853 854 854 855 855 856 856 856 856 856 856 856 855 855 854 854 854 854 854 853 852 852 852 852 852 852 851 850 849
814 813 812 812 812 811 811 811 812 812 813 814 815 816 818 819 820 821 822 823 824 825 826 827 828 829 830 830 831 831 831 832 833 834 835 836 838 840 842 844 845 846 846 846 847 847 848 848 849 849 849 849 850 850 850 850 850 850 850 851 851 851 852 852 853 853 854 854 854 853 853 853 853 852 852 852 852 851 851 851 850 850 849 848 847
815 814 813 813 812 811 811 810 809 809 810 812 812 813 814 815 816 817 818 819 820 821 822 823 824 824 825 826 827 827 827 828 829 830 830 832 833 835 837 839 841 841 842 842 843 843 843 844 844 845 845 846 846 846 847 847 847 847 846 846 846 847 847 848 848 849 850 851 851 851 851 851 851 850 850 850 850 850 849 849 848 848 847 846 845
816 815 815 814 812 811 810 809 808 807 807 808 809 809 810 810 811 813 814 815 816 817 818 819 820 820 821 822 822 822 823 823 824 825 826 827 829 831 833 835 836 837 837 838 838 839 839 840 840 840 841 841 841 842 843 844 844 844 844 843 843 843 843 843 844 845 846 846 847 847 848 849 849 848 848 848 848 848 847 847 846 846 845 844 843
817 816 815 813 812 810 809 808 807 805 805 805 805 806 806 807 808 809 810 811 812 813 814 815 815 816 817 818 818 818 818 819 820 821 822 824 826 828 829 830 831 832 832 833 833 834 835 835 835 836 836 836 836 837 839 840 841 841 841 840 840 840 839 839 840 841 842 842 843 844 844 845 845 845 845 845 845 846 846 845 844 844 843 842 840
818 816 815 813 812 810 809 808 806 804 803 803 802 802 803 803 805 806 807 808 808 809 810 811 812 812 813 814 814 814 814 814 816 817 818 820 822 824 825 826 827 827 827 828 828 829 830 830 830 831 831 831 831 833 834 836 837 837 837 837 837 836 835 836 836 836 837 839 840 840 841 841 842 841 841 842 842 843 843 843 842 841 840 838 837
817 816 815 814 812 810 809 808 807 805 803 802 801 801 801 802 803 804 805 805 805 806 806 807 808 808 809 809 810 810 810 810 811 812 814 816 818 819 820 822 823 823 823 823 824 824 824 824 825 826 826 826 827 829 830 832 833 833 834 834 833 832 832 832 833 832 833 834 835 836 837 837 838 837 837 838 838 839 840 839 838 838 836 835 834
816 815 815 813 812 811 809 808 807 804 802 801 800 801 802 803 803 804 805 804 804 804 804 804 804 805 805 805 806 806 806 806 807 808 809 811 813 814 816 818 818 818 818 819 819 819 819 819 819 820 820 821 823 824 826 827 828 829 830 830 829 828 828 829 830 830 830 831 831 832 833 833 834 833 833 834 834 834 835 835 835 835 834 832 831
816 815 814 813 812 811 809 808 806 804 802 801 800 801 802 802 802 804 804 804 804 804 803 802 801 801 802 802 802 802 802 802 803 803 804 806 807 809 811 812 812 813 814 814 815 814 814 814 814 813 814 815 817 819 821 823 824 825 826 826 825 824 825 826 826 827 828 828 828 829 829 830 830 830 829 830 830 830 830 830 831 832 831 830 829
816 815 813 812 811 810 808 807 805 803 802 801 800 800 800 800 799 799 800 800 800 801 801 800 799 799 799 798 798 798 798 798 798 799 799 801 802 804 806 806 806 808 810 810 810 810 809 809 809 808 809 809 811 814 816 818 819 821 822 821 821 822 823 824 824 824 825 825 825 826 826 827 827 826 826 826 826 826 826 826 827 828 828 827 826
815 814 812 810 809 808 807 806 804 803 801 800 799 798 798 798 797 797 798 797 796 796 796 796 796 796 795 795 794 794 794 794 794 795 795 796 797 798 800 800 802 805 806 805 805 805 804 805 805 805 806 806 807 810 812 814 815 815 816 816 817 819 821 821 822 822 821 821 821 822 822 822 822 822 822 822 822 822 822 823 823 823 823 823 823
814 812 811 809 808 806 805 804 803 802 801 800 798 797 795 795 794 795 796 795 793 793 792 792 792 792 791 790 790 790 790 790 790 790 790 791 792 793 794 795 797 800 801 801 800 800 801 801 802 803 804 804 805 807 809 810 810 810 811 812 814 815 817 818 819 819 818 818 818 818 818 818 818 818 818 817 818 818 818 819 819 819 819 819 819
813 811 809 808 806 805 804 803 802 801 800 798 796 795 794 793 792 792 792 791 790 790 789 789 789 788 787 786 785 784 785 785 785 785 785 786 787 788 789 791 793 796 797 796 796 797 798 799 800 801 802 802 803 804 805 806 806 806 807 808 810 812 813 814 815 815 815 814 814 814 814 814 814 814 813 814 814 814 815 815 815 816 816 815 816
811 809 808 807 805 803 802 801 799 798 798 797 795 792 792 791 790 789 789 788 787 786 785 785 784 783 782 781 779 779 780 781 781 781 781 782 782 783 784 786 788 790 792 792 793 795 796 798 799 800 800 800 801 801 801 801 802 802 803 805 806 808 809 810 811 811 811 810 810 810 810 810 810 810 810 810 810 811 811 811 811 812 812 812 812
809 808 806 805 803 802 800 798 797 796 795 794 792 790 789 788 787 786 785 785 784 782 781 780 779 778 777 776 775 776 777 778 779 778 777 777 777 779 780 781 783 786 788 789 791 793 795 796 797 798 798 798 798 798 798 798 798 799 800 801 802 803 804 805 806 806 806 805 805 805 805 805 806 806 806 807 806 806 807 807 807 808 808 808 808
806 805 804 802 801 800 798 796 795 793 792 791 789 787 786 785 783 782 782 781 780 778 777 776 774 774 773 773 774 774 774 775 776 776 775 774 773 774 776 777 779 783 785 787 790 792 793 794 794 795 795 795 794 794 794 794 795 795 795 796 797 797 799 800 801 801 801 801 801 801 801 801 801 802 802 802 802 802 802 803 803 803 804 804 804
804 802 801 800 798 797 795 794 792 790 789 787 786 785 784 782 780 778 778 777 777 775 773 772 772 773 773 774 775 776 774 771 770 771 772 772 771 770 771 773 775 779 784 787 789 790 790 790 790 790 791 790 790 790 790 790 790 791 791 791 791 792 793 795 796 796 796 797 797 796 796 796 796 797 797 798 797 797 798 799 799 799 800 800 800
801 799 798 796 795 794 792 791 789 788 786 785 784 783 782 780 779 776 774 774 774 772 771 770 771 772 772 772 774 776 773 769 767 768 770 771 771 769 768 770 773 777 781 785 785 783 783 785 785 785 785 785 785 785 785 785 785 786 786 787 787 787 788 789 789 790 791 792 792 792 791 792 792 792 793 793 793 793 794 794 794 795 795 796 796
798 796 795 793 792 791 789 788 787 786 784 782 781 780 778 777 776 774 772 771 770 769 768 767 768 770 770 769 770 771 769 766 765 765 767 769 770 769 767 768 770 772 776 779 779 777 777 778 779 779 780 780 779 779 779 779 779 780 781 781 782 782 782 783 783 784 786 786 786 787 787 787 787 788 788 788 788 788 789 790 790 790 791 791 791
795 793 791 790 789 788 787 786 785 783 782 780 779 777 775 773 772 770 769 767 765 765 764 764 764 766 766 765 764 764 763 762 761 761 762 764 766 766 765 765 765 768 772 775 775 773 772 773 774 774 775 775 774 773 773 773 773 774 775 775 776 776 777 777 778 779 780 780 781 782 782 782 782 782 782 783 783 784 785 785 785 786 786 786 786
791 789 788 787 786 785 784 783 782 781 779 777 776 775 773 770 767 765 764 763 761 759 760 760 760 761 761 760 759 758 757 757 757 757 757 758 759 761 762 762 761 765 769 771 770 769 769 769 770 770 770 769 768 767 768 768 768 769 769 769 770 770 771 772 773 774 774 775 775 776 776 776 777 777 777 778 779 779 780 780 780 780 781 781 781
788 786 785 784 783 782 781 779 779 778 776 775 773 772 771 768 765 762 760 759 757 755 755 755 755 756 755 755 754 753 751 752 752 751 751 753 754 756 759 759 759 762 765 766 765 765 765 765 765 764 764 763 762 762 763 763 763 764 764 763 764 764 766 767 768 769 769 769 769 769 770 770 771 772 772 773 774 774 774 774 775 775 776 777 777
785 783 781 780 780 778 777 776 775 774 773 772 770 769 768 766 763 761 758 756 752 750 749 750 750 750 750 750 749 748 747 747 747 747 746 748 750 752 754 756 757 759 761 761 761 761 760 760 759 759 759 758 758 758 757 758 758 759 758 758 758 759 761 762 763 763 763 763 763 763 764 765 766 767 768 768 769 769 769 770 770 771 771 772 772
780 779 778 777 776 775 774 773 772 771 770 769 767 766 764 762 761 760 758 756 752 748 746 746 746 746 746 746 745 745 744 743 743 742 743 743 745 747 749 751 752 754 755 756 756 756 755 755 754 754 754 754 753 753 752 752 753 753 753 753 753 754 755 756 756 757 758 758 758 758 759 760 761 762 763 764 765 765 766 766 766 766 767 768 768
776 775 774 773 772 771 770 769 768 767 766 765 764 763 761 759 758 757 756 755 751 747 744 743 743 742 741 741 741 740 740 739 739 738 738 739 740 742 743 744 745 747 749 749 750 749 749 749 748 748 749 749 748 748 747 747 747 747 747 748 748 748 750 750 750 751 752 752 752 752 753 755 757 758 759 760 760 761 762 762 762 762 763 764 765
772 771 769 768 767 766 765 765 765 764 763 762 761 760 758 757 755 754 753 751 749 745 742 741 740 739 737 736 736 736 735 735 734 733 733 734 735 736 737 737 738 740 742 742 743 743 743 743 743 743 744 743 743 743 742 742 742 742 743 743 743 744 744 745 745 746 746 746 746 747 748 750 752 753 754 755 755 756 757 758 759 759 760 761 762
768 766 765 764 763 763 762 761 761 761 760 759 757 756 755 753 752 750 749 748 746 744 740 738 737 735 733 732 733 733 732 732 731 729 728 729 730 731 731 732 732 733 734 734 735 736 737 737 737 738 738 738 738 737 737 737 737 737 737 738 739 739 740 740 741 741 741 741 741 742 743 745 747 748 750 750 751 752 753 754 754 755 756 758 759
762 761 761 761 760 760 759 758 757 757 756 754 753 752 751 750 748 747 746 745 744 741 738 735 734 732 730 730 730 730 730 729 728 726 726 726 726 726 727 728 728 728 727 727 728 729 730 731 731 732 732 732 732 732 732 732 732 732 732 733 734 735 735 736 736 736 736 736 736 737 739 740 742 744 746 746 746 747 748 748 749 750 751 752 753
757 756 756 756 756 755 755 754 754 753 752 750 749 748 747 746 745 744 742 742 740 738 735 733 730 728 728 728 727 728 728 727 726 725 724 723 723 723 723 723 723 723 723 723 722 723 724 725 725 726 726 726 726 727 727 727 727 727 727 728 729 729 730 730 731 732 731 731 732 733 734 736 738 740 741 742 742 743 744 745 745 746 746 747 747
752 751 750 750 750 750 749 749 749 748 747 747 745 744 743 742 741 740 739 738 736 735 733 730 727 725 725 724 724 725 725 725 723 723 722 720 720 720 719 719 719 719 719 719 718 718 718 719 719 720 720 721 721 721 722 722 722 722 722 723 723 724 724 726 727 727 727 727 728 729 730 732 734 735 735 736 737 738 739 741 742 743 743 743 743
748 746 745 745 745 744 744 744 744 743 743 742 741 741 740 739 738 737 736 734 733 732 729 727 724 723 721 721 721 722 722 722 721 721 719 718 717 716 716 716 715 715 715 715 715 714 714 715 715 715 716 716 717 717 717 717 717 717 717 718 718 719 720 721 722 723 723 723 724 726 728 729 728 727 727 728 730 731 732 734 736 737 737 737 737
743 742 741 740 740 739 739 739 740 740 739 738 738 738 737 736 735 734 733 731 730 729 726 724 722 720 718 717 718 718 718 718 718 717 716 715 714 713 713 712 711 711 711 711 710 710 710 711 712 712 713 713 713 713 713 713 713 713 714 714 714 715 716 716 717 719 719 720 721 723 725 724 722 721 722 723 724 723 724 726 728 729 729 730 731
738 737 736 736 735 735 735 736 736 736 736 735 735 734 734 733 732 731 729 728 726 725 724 721 719 718 716 715 714 713 712 712 713 713 712 712 711 709 709 708 708 708 707 707 707 708 708 708 708 709 709 709 709 709 710 710 710 710 710 711 711 712 712 713 713 715 716 717 717 718 719 718 718 720 721 722 721 720 720 721 722 723 724 724 724
733 732 733 732 732 731 732 733 733 733 733 732 732 731 730 729 728 727 726 725 724 722 721 719 718 717 715 714 712 710 708 708 708 708 708 708 708 707 707 706 706 706 705 705 705 706 706 706 706 706 706 706 706 706 707 707 707 707 708 708 708 708 709 709 710 711 713 713 713 714 714 715 715 716 717 717 718 718 717 717 718 718 719 719 718
729 729 729 729 728 728 729 730 730 730 729 728 728 727 726 725 725 724 723 722 721 720 719 718 716 716 715 713 710 707 706 706 706 706 706 706 706 706 706 705 705 705 704 704 704 704 704 704 704 704 704 703 703 703 703 703 704 704 704 704 704 704 705 706 706 708 709 709 709 710 712 712 713 713 713 713 714 714 713 713 714 714 714 714 714
726 726 726 726 726 726 726 726 726 726 725 725 725 724 723 722 722 722 721 720 719 718 717 716 715 714 713 711 708 705 705 705 706 706 706 705 705 706 706 705 705 704 704 704 703 702 702 702 702 702 702 701 701 701 700 700 700 700 700 701 701 701 701 702 702 704 706 707 707 708 709 710 710 709 709 710 710 710 710 710 710 710 710 710 711
723 723 723 723 723 723 722 722 722 722 722 722 722 721 721 720 720 720 719 718 718 717 717 716 715 713 712 709 706 704 704 705 706 707 706 706 706 706 706 705 705 705 704 703 702 701 701 701 701 701 701 701 700 700 699 699 699 699 698 698 698 697 698 699 699 700 702 703 704 705 706 706 707 706 706 706 707 707 707 708 708 708 708 707 708
720 721 721 721 721 720 719 719 718 718 719 719 719 719 718 718 718 718 718 717 716 716 715 715 713 712 710 708 705 704 705 706 707 708 707 707 707 706 706 706 706 705 704 703 702 702 701 701 701 701 701 701 700 700 699 699 699 698 697 696 696 696 696 697 697 698 699 700 700 701 701 702 703 704 704 705 705 705 706 707 708 708 708 708 708
719 718 718 718 718 717 717 716 716 716 716 717 717 716 716 716 716 716 716 716 715 715 714 713 712 711 709 707 706 706 706 707 708 708 708 708 707 707 706 706 706 706 705 705 704 703 703 703 702 702 702 701 701 702 702 701 700 698 698 697 697 697 697 697 697 697 698 698 698 698 699 699 700 702 703 705 706 706 707 709 710 709 709 709 710
717 716 716 716 716 715 715 715 714 714 715 715 715 715 714 714 715 715 715 715 714 714 713 713 712 711 710 709 708 708 708 708 709 709 709 709 708 707 707 707 707 707 707 707 706 706 706 705 705 704 704 703 703 703 704 704 703 701 699 699 698 698 698 699 699 700 700 699 699 699 699 699 700 701 703 706 708 709 709 710 711 711 711 711 713